(308986) = 2006 UK10

Discovered at Mount Lemmon on 2006-09-26 by Mt. Lemmon Survey.

Orbit

Orbit type: Main Belt

Note: WebGL enabled browser required.

epoch2024-03-31.0
epoch JD2460400.5
perihelion date2023-01-29.55619
perihelion JD2459974.05619
argument of perihelion (°)267.35421
ascending node (°)202.11593
inclination (°)9.92546
eccentricity0.0696493
perihelion distance (AU)2.7579314
Tisserand w.r.t. Jupiter3.2
ΔV w.r.t. Earth (km/sec)10.8
semimajor axis (AU)2.9643999
mean anomaly (°)82.34941
mean daily motion (°/day)0.19310730
aphelion distance (AU)3.171
period (years)5.1
P-vector [x]-0.32768674
P-vector [y]0.92079843
P-vector [z]0.21154589
Q-vector [x]-0.94255520
Q-vector [y]-0.30323334
Q-vector [z]-0.14014005
absolute magnitude16.1
phase slope0.15
uncertainty0
referenceMPEC 2024-F50
observations used296
oppositions16
arc length (days)9046
first opposition used1999
last opposition used2024
residual rms (arc-secs)0.66
perturbers coarse indicatorM-v
perturbers precise indicator003Ek
first observation date used1999-06-13.0
last observation date used2024-03-19.0
computer nameMPCLINUX
JD of orbit computation2456819.554295
perihelion JD uncertainty (days)1.8649E-04
argument of perihelion uncertainty (°)4.1574E-05
ascending node uncertainty (°)1.8903E-05
inclination uncertainty (°)4.6886E-06
eccentricity uncertainty 4.2051E-08
perihelion distance uncertainty (AU)1.1132E-07
Minimum Orbit Intersection Distances (in AU)
for orbit epoch: 2460400.5, reference: E2024-GB3
Mercury2.45154
Venus2.0587
Earth1.79778
Mars1.1915
Jupiter1.96417
Saturn6.28686
Uranus15.5875
Neptune26.8731

Observations

292 total observations over interval: 1999 06 13.25129 – 2024 03 19.529824
These data are available for download (format description).

Date (UT) J2000 RA J2000 Dec Magn Location Ref
1999 06 13.25129 16 03 41.87 -10 22 16.8 21.4 V 691 – Steward Observatory, Kitt Peak-Spacewatch MPS 398235
1999 06 13.27273 16 03 40.96 -10 22 14.3 21.5 V 691 – Steward Observatory, Kitt Peak-Spacewatch MPS 398235
1999 06 13.29383 16 03 40.10 -10 22 10.9 21.1 V 691 – Steward Observatory, Kitt Peak-Spacewatch MPS 398235
2000 09 27.115340 20 53 00.888 -06 31 50.83 21.36 V 645 – Apache Point-Sloan Digital Sky Survey MPS 398235
2000 09 27.118812 20 53 00.868 -06 31 51.74 22.10   645 – Apache Point-Sloan Digital Sky Survey MPS 398235
2006 09 26.40785 02 34 56.71 +13 38 21.7 20.5 V G96 – Mt. Lemmon Survey MPS 186546
2006 09 26.41543 02 34 56.53 +13 38 19.3 20.6 V G96 – Mt. Lemmon Survey MPS 186546
2006 09 26.42293 02 34 56.35 +13 38 17.0 20.5 V G96 – Mt. Lemmon Survey MPS 186546
2006 09 26.43052 02 34 56.20 +13 38 14.7 20.3 V G96 – Mt. Lemmon Survey MPS 186546
2006 10 17.27096 02 23 33.54 +11 28 02.8 19.9 V G96 – Mt. Lemmon Survey MPS 183202
2006 10 17.27771 02 23 33.21 +11 27 59.5 20.0 V G96 – Mt. Lemmon Survey MPS 183202
2006 10 17.28441 02 23 32.92 +11 27 57.1 20.1 V G96 – Mt. Lemmon Survey MPS 183202
2006 10 17.29112 02 23 32.60 +11 27 54.1 20.3 V G96 – Mt. Lemmon Survey MPS 183202
2006 10 18.27712 02 22 50.61 +11 20 51.6 20.5 V 691 – Steward Observatory, Kitt Peak-Spacewatch MPS 183202
2006 10 18.29448 02 22 49.84 +11 20 44.1 20.5 V 691 – Steward Observatory, Kitt Peak-Spacewatch MPS 183202
2006 10 18.31186 02 22 49.06 +11 20 36.8 20.3 V 691 – Steward Observatory, Kitt Peak-Spacewatch MPS 183202
2006 11 01.22686 02 12 19.11 +09 39 10.7 19.9 V G96 – Mt. Lemmon Survey MPS 186546
2006 11 01.23264 02 12 18.82 +09 39 08.4 19.6 V G96 – Mt. Lemmon Survey MPS 186546
2006 11 01.23840 02 12 18.54 +09 39 05.6 19.9 V G96 – Mt. Lemmon Survey MPS 186546
2006 11 01.24415 02 12 18.28 +09 39 03.3 19.4 V G96 – Mt. Lemmon Survey MPS 186546
2006 11 10.14326 02 05 44.37 +08 37 23.0 20.6 V 691 – Steward Observatory, Kitt Peak-Spacewatch MPS 187143
2006 11 10.15872 02 05 43.72 +08 37 17.0 20.5 V 691 – Steward Observatory, Kitt Peak-Spacewatch MPS 187143
2006 11 10.17419 02 05 43.05 +08 37 11.1 20.6 V 691 – Steward Observatory, Kitt Peak-Spacewatch MPS 187143
2006 11 13.18961 02 03 39.13 +08 17 49.8 20.6 V 703 – Catalina Sky Survey MPS 187143
2006 11 13.19659 02 03 38.95 +08 17 50.6 19.6 V 703 – Catalina Sky Survey MPS 187143
2006 11 13.20358 02 03 38.66 +08 17 44.8 20.3 V 703 – Catalina Sky Survey MPS 187143
2006 11 13.21054 02 03 38.26 +08 17 43.2 19.4 V 703 – Catalina Sky Survey MPS 187143
2008 01 18.35774 09 19 34.10 +00 58 54.1 20.4 V G96 – Mt. Lemmon Survey MPS 398235
2008 01 18.36267 09 19 33.88 +00 58 54.5 20.2 V G96 – Mt. Lemmon Survey MPS 398235
2008 01 18.36758 09 19 33.67 +00 58 55.2 20.6 V G96 – Mt. Lemmon Survey MPS 398235
2008 01 18.37255 09 19 33.49 +00 58 55.8 20.4 V G96 – Mt. Lemmon Survey MPS 398235
2008 02 09.30258 09 02 48.94 +02 23 07.5 20.0 V 703 – Catalina Sky Survey MPS 398235
2008 02 09.31117 09 02 48.51 +02 23 09.9 19.9 V 703 – Catalina Sky Survey MPS 398235
2008 02 09.31976 09 02 48.12 +02 23 12.7 20.4 V 703 – Catalina Sky Survey MPS 398235
2008 02 09.32836 09 02 47.65 +02 23 16.2 20.1 V 703 – Catalina Sky Survey MPS 398235
2009 04 27.32899 15 21 59.09 -12 16 50.7 21.0 V 691 – Steward Observatory, Kitt Peak-Spacewatch MPS 398235
2009 04 27.34665 15 21 58.31 -12 16 44.6 20.7 V 691 – Steward Observatory, Kitt Peak-Spacewatch MPS 398235
2009 04 27.36432 15 21 57.50 -12 16 37.7 20.4 V 691 – Steward Observatory, Kitt Peak-Spacewatch MPS 398235
2009 05 16.30661 15 07 32.70 -10 27 11.6 20.2 V G96 – Mt. Lemmon Survey MPS 398235
2009 05 16.31426 15 07 32.30 -10 27 09.2 20.4 V G96 – Mt. Lemmon Survey MPS 398235
2009 05 16.32208 15 07 31.90 -10 27 06.5 20.6 V G96 – Mt. Lemmon Survey MPS 398235
2009 05 16.32978 15 07 31.58 -10 27 03.9 19.9 V G96 – Mt. Lemmon Survey MPS 398235
2010 06 21.35109 20 40 13.22 -04 32 56.2 21.1 V G96 – Mt. Lemmon Survey MPS 398235
2010 06 21.35822 20 40 13.00 -04 32 55.9 21.4 V G96 – Mt. Lemmon Survey MPS 398235
2010 06 21.36532 20 40 12.82 -04 32 55.0 20.9 V G96 – Mt. Lemmon Survey MPS 398235
2010 06 21.37247 20 40 12.68 -04 32 54.7 21.0 V G96 – Mt. Lemmon Survey MPS 398235
2011 09 28.40852 01 53 44.05 +11 49 03.0 20.5 V G96 – Mt. Lemmon Survey MPS 398235
2011 09 28.41545 01 53 43.83 +11 49 00.4 20.2 V G96 – Mt. Lemmon Survey MPS 398235
2011 09 28.42237 01 53 43.62 +11 48 57.8 20.2 V G96 – Mt. Lemmon Survey MPS 398235
2011 09 28.42924 01 53 43.36 +11 48 55.1 20.1 V G96 – Mt. Lemmon Survey MPS 398235
2011 10 24.28497 01 35 56.11 +08 42 25.5 19.8 V G96 – Mt. Lemmon Survey MPS 398235
2011 10 24.29078 01 35 55.86 +08 42 23.0 19.8 V G96 – Mt. Lemmon Survey MPS 398235
2011 10 24.29662 01 35 55.60 +08 42 20.3 19.7 V G96 – Mt. Lemmon Survey MPS 398235
2011 10 24.30248 01 35 55.32 +08 42 17.5 19.4 V G96 – Mt. Lemmon Survey MPS 398235
2011 10 25.26844 01 35 12.66 +08 34 58.6 20.1 V G96 – Mt. Lemmon Survey MPS 398235
2011 10 25.27124 01 35 12.55 +08 34 57.5 20.1 V G96 – Mt. Lemmon Survey MPS 398235
2011 10 25.27681 01 35 12.26 +08 34 54.9 19.6 V G96 – Mt. Lemmon Survey MPS 398235
2011 10 25.27963 01 35 12.15 +08 34 53.6 19.9 V G96 – Mt. Lemmon Survey MPS 398235
2011 11 03.15756 01 28 57.72 +07 29 52.4 20.0 V G96 – Mt. Lemmon Survey MPS 398235
2011 11 03.16628 01 28 57.39 +07 29 49.2 19.6 V G96 – Mt. Lemmon Survey MPS 398235
2011 11 03.17507 01 28 57.00 +07 29 45.3 19.8 V G96 – Mt. Lemmon Survey MPS 398235
2011 11 03.18384 01 28 56.64 +07 29 41.5 19.8 V G96 – Mt. Lemmon Survey MPS 398235
2011 11 30.17060 01 17 17.19 +05 08 37.9 21.0 V G96 – Mt. Lemmon Survey MPS 402396
2011 11 30.17876 01 17 17.12 +05 08 36.2 20.7 V G96 – Mt. Lemmon Survey MPS 402396
2011 11 30.18694 01 17 17.01 +05 08 35.1 20.9 V G96 – Mt. Lemmon Survey MPS 402396
2011 11 30.19514 01 17 16.90 +05 08 33.0 21.0 V G96 – Mt. Lemmon Survey MPS 402396
2013 01 17.26660 08 31 48.27 +03 33 06.1 20.4 G G45 – Space Surveillance Telescope, Atom Site MPS 1609359
2013 01 17.27871 08 31 47.64 +03 33 08.4 20.2 G G45 – Space Surveillance Telescope, Atom Site MPS 1609359
2013 01 17.31480 08 31 45.91 +03 33 13.4 20.4 G G45 – Space Surveillance Telescope, Atom Site MPS 1609359
2013 01 17.32412 08 31 45.48 +03 33 14.5 19.4 V 703 – Catalina Sky Survey MPS 452231
2013 01 17.33059 08 31 45.12 +03 33 15.9 20.7 V 703 – Catalina Sky Survey MPS 452231
2013 01 17.33701 08 31 44.79 +03 33 17.8 19.9 V 703 – Catalina Sky Survey MPS 452231
2013 01 17.34353 08 31 44.40 +03 33 18.9 20.0 V 703 – Catalina Sky Survey MPS 452231
2013 01 17.39058 08 31 42.12 +03 33 24.9 20.1 G G45 – Space Surveillance Telescope, Atom Site MPS 1609359
2013 01 18.49499 08 30 48.840 +03 36 16.45 20.0 w F51 – Pan-STARRS 1, Haleakala MPS 453169
2013 01 18.50935 08 30 48.117 +03 36 18.80 19.9 w F51 – Pan-STARRS 1, Haleakala MPS 453169
2013 01 18.52378 08 30 47.390 +03 36 21.07 20.0 w F51 – Pan-STARRS 1, Haleakala MPS 453169
2013 02 09.43908 08 13 16.834 +05 07 55.73 20.4 g F51 – Pan-STARRS 1, Haleakala MPS 456238
2013 02 09.46547 08 13 15.657 +05 08 04.31 19.9 r F51 – Pan-STARRS 1, Haleakala MPS 456238
2013 02 09.47818 08 13 15.088 +05 08 08.45 20.0 r F51 – Pan-STARRS 1, Haleakala MPS 456238
2014 02 28.54592 14 57 18.959 -15 28 48.70 21.2 w F51 – Pan-STARRS 1, Haleakala MPS 505272
2014 02 28.55786 14 57 19.141 -15 28 47.47 21.3 w F51 – Pan-STARRS 1, Haleakala MPS 505272
2014 02 28.56981 14 57 19.318 -15 28 46.35 21.1 w F51 – Pan-STARRS 1, Haleakala MPS 505272
2014 03 31.35341 14 55 01.36 -13 39 51.4   691 – Steward Observatory, Kitt Peak-Spacewatch MPS 509663
2014 03 31.37115 14 55 00.90 -13 39 46.1   691 – Steward Observatory, Kitt Peak-Spacewatch MPS 509663
2014 03 31.38889 14 55 00.41 -13 39 40.5   691 – Steward Observatory, Kitt Peak-Spacewatch MPS 509663
2014 04 05.53969 14 52 35.253 -13 11 16.71 20.6 w F51 – Pan-STARRS 1, Haleakala MPS 510988
2014 04 05.55024 14 52 34.902 -13 11 13.11 20.5 w F51 – Pan-STARRS 1, Haleakala MPS 510988
2014 04 05.56081 14 52 34.569 -13 11 09.40 20.6 w F51 – Pan-STARRS 1, Haleakala MPS 510988
2014 04 23.33897 14 41 05.91 -11 19 35.7 20.3 V W84 – Cerro Tololo-DECam MPS 789584
2014 04 23.34218 14 41 05.76 -11 19 34.3   W84 – Cerro Tololo-DECam MPS 789584
